This is the latest recevied weather packets stored in our database for station/object KF6RAL-6. If no packets are shown the sender has not sent any weather packets the latest 10 day(s).
| Time | Temp. | Humidity | Pressure | Rain* | Wind** | Luminosity | Snow |
|---|---|---|---|---|---|---|---|
| 1788002935 | 19.44° C | 78% | 1016.8 hPa | 0.25 mm | - | - | - |
| 1788002514 | 20° C | 77% | 1016.4 hPa | 0.25 mm | - | - | - |
| 1788002093 | 20° C | 74% | 1016.8 hPa | 0.25 mm | - | - | - |
| 1788001673 | 20° C | 72% | 1016.7 hPa | 0.25 mm | - | - | - |
| 1788001251 | 20.56° C | 72% | 1017.2 hPa | 0 mm | - | - | - |
| 1788000830 | 20.56° C | 75% | 1017.5 hPa | 0 mm | - | - | - |
| 1787999989 | 20° C | 79% | 1017.3 hPa | 0 mm | - | - | - |
| 1787999568 | 20° C | 79% | 1017.3 hPa | 0 mm | - | - | - |
| 1787999146 | 20° C | 79% | 1017 hPa | 0 mm | - | - | - |
| 1787998725 | 20° C | 78% | 1016.7 hPa | 0 mm | - | - | - |
| 1787998306 | 20° C | 77% | 1016.6 hPa | 0 mm | - | - | - |
| 1787997883 | 20° C | 77% | 1016.2 hPa | 0 mm | - | - | - |
| 1787997464 | 20° C | 78% | 1015.7 hPa | 0 mm | - | - | - |
| 1787996622 | 19.44° C | 80% | 1016.2 hPa | 0 mm | - | - | - |
| 1787996199 | 19.44° C | 81% | 1016.3 hPa | 0 mm | - | - | - |
| 1787995778 | 19.44° C | 83% | 1015.8 hPa | 0 mm | - | - | - |
| 1787995358 | 19.44° C | 83% | 1016.8 hPa | 0 mm | - | - | - |
| 1787994515 | 19.44° C | 83% | 1017.2 hPa | 0 mm | - | - | - |
| 1787994094 | 19.44° C | 83% | 1017.4 hPa | 0 mm | - | - | - |
| 1787993673 | 19.44° C | 83% | 1017.3 hPa | 0 mm | - | - | - |
| 1787993252 | 18.89° C | 83% | 1017.7 hPa | 0 mm | - | - | - |
| 1787992831 | 18.89° C | 83% | 1017.5 hPa | 0 mm | - | - | - |
| 1787992410 | 19.44° C | 83% | 1017.3 hPa | 0 mm | - | - | - |
| 1787991990 | 19.44° C | 81% | 1017.4 hPa | 0 mm | - | - | - |
| 1787991568 | 20° C | 80% | 1017.7 hPa | 0 mm | - | - | - |
* Rain latest hour (hover to see other rain measurements)
** Current wind speed in m/s (hover to see current wind gust speed)